Hourly Data Report for June 16, 2017

TORONTO CITY
ONTARIO

43°40'00.000" N
79°24'00.000" W
112.50 m
6158355
71508
XTO

Download Data

Hourly Data (June 2017)
Hourly Data Report for June 16, 2017
TIME
LST
Temp Definition
°C
Dew Point Definition
°C
Rel Hum Definition
%
Precip. Amount Definition
mm

Wind Dir Definition
10's deg

Wind Spd Definition
km/h
Visibility Definition
km
Stn Press Definition
kPa
Hmdx Definition


Wind Chill Definition


Weather Definition


00:00 17.5 14.6 83 0.0 LegendMM LegendMM   99.57     LegendNANA
01:00 17.5 14.8 84 0.0 LegendMM LegendMM   99.53     LegendNANA
02:00 17.6 14.7 83 0.0 LegendMM LegendMM   99.51     LegendNANA
03:00 17.8 15.0 84 0.0 LegendMM LegendMM   99.50     LegendNANA
04:00 17.3 14.4 83 0.0 LegendMM LegendMM   99.53     LegendNANA
05:00 16.9 13.9 83 0.0 LegendMM LegendMM   99.57     LegendNANA
06:00 17.5 14.5 82 0.0 LegendMM LegendMM   99.57     LegendNANA
07:00 18.5 14.5 78 0.0 LegendMM LegendMM   99.63     LegendNANA
08:00 21.1 15.8 72 0.0 LegendMM LegendMM   99.62 26   LegendNANA
09:00 22.4 15.8 66 0.0 LegendMM LegendMM   99.60 27   LegendNANA
10:00 23.5 16.2 64 0.0 LegendMM LegendMM   99.62 28   LegendNANA
11:00 24.4 17.6 66 0.0 LegendMM LegendMM   99.63 30   LegendNANA
12:00 26.4 18.6 62 0.0 LegendMM LegendMM   99.58 33   LegendNANA
13:00 27.8 17.3 53 0.0 LegendMM LegendMM   99.56 33   LegendNANA
14:00 27.9 15.8 48 0.0 LegendMM LegendMM   99.52 32   LegendNANA
15:00 29.1 15.6 44 0.0 LegendMM LegendMM   99.49 33   LegendNANA
16:00 29.8 15.7 43 0.0 LegendMM LegendMM   99.47 34   LegendNANA
17:00 29.5 11.6 33 0.0 LegendMM LegendMM   99.45 32   LegendNANA
18:00 27.0 12.4 41 0.0 LegendMM LegendMM   99.44 29   LegendNANA
19:00 25.6 13.5 47 0.0 LegendMM LegendMM   99.47 29   LegendNANA
20:00 22.2 17.4 74 1.2 LegendMM LegendMM   99.58 28   LegendNANA
21:00 20.6 15.9 75 2.0 LegendMM LegendMM   99.53 25   LegendNANA
22:00 20.4 18.1 87 0.0 LegendMM LegendMM   99.59 26   LegendNANA
23:00 20.4 17.9 85 0.0 LegendMM LegendMM   99.58 26   LegendNANA

Notes on Data Quality.

Legend

  • E = Estimated
  • M = Missing
  • NA = Not Available*
  • [empty] = Indicates an unobserved value
Date modified: